Погода в Больших Вязёмах

Россия / Московская область     55˚37′42″N   36˚59′39″E
темп.,
°C
ветер,
м/с
пор.,
м/с
влажн.,
%
обл.,
%
осадки,
мм/ч
давл.,
гПа
погр.,
м
17 января, вс
вс1700:00−19˚ссз4994100 0.4 1009460
03:00−21˚ссз3895100 0.4 1011374
06:00−25˚ссз379899 0.0 1013180
09:00−26˚ссз359890 0.0 1015109
12:00−22˚с359654 0.0 1016242
15:00−20˚ссз139671 0.0 1017182
18:00−24˚с239738 0.0 101920
21:00−25˚с129822 0.0 102020
18 января, пн
пн1800:00−25˚ссз119919 0.0 102020
03:00−25˚ссз119910 0.0 102020
06:00−24˚юз129926 0.0 101920
09:00−24˚зсз239849 0.0 102121
12:00−19˚юз119230 0.0 102086
15:00−17˚ююз129435 0.0 101950
18:00−21˚з129755 0.0 101920
21:00−21˚зсз119976 0.0 101920
19 января, вт
вт1900:00−19˚зюз129899 0.0 101821
03:00−19˚сз119799 0.1 101820
06:00−17˚юз0097100 0.1 101720
09:00−17˚сз1197100 0.2 101720
12:00−14˚ссз1293100 0.1 1017213
15:00−13˚ссз1293100 0.2 1016233
18:00−14˚ссз129691 0.1 101720
21:00−17˚ссз229787 0.1 101820
20 января, ср
ср2000:00−16˚сз129781 0.1 101820
03:00−17˚зсз229781 0.1 101920
06:00−17˚зсз129888 0.0 102020
09:00−17˚з129892 0.1 102120
12:00−14˚з239695 0.0 1022149
15:00−12˚зюз239585 0.1 1022147
18:00−16˚зюз23960 0.0 102320
21:00−17˚юз23970 0.0 102323
21 января, чт
чт2100:00−17˚юз33970 0.0 102360
03:00−18˚юз359719 0.0 1023116
06:00−17˚ююз399565 0.0 1021185
09:00−15˚ююз499282 0.0 1020257
12:00−11˚ююз51192100 0.0 1017354
15:00−9˚ююз51294100 0.3 1015463
18:00−8˚юз51293100 0.4 1014524
21:00−7˚юз41194100 0.7 1013488